Flag for U.S.A. Weather past 2 weeks in Houston, Texas, U.S.A.

75 °F

Passing clouds.

Feels Like: 77 °F
Forecast: 71 / 88 °F
Wind: 13 mph from North

Location: Houston Hobby Airport

Current Time: Oct 10, 2015 at 4:17:48 AM

Latest Report: Oct 10, 2015 at 3:53 AM

Visibility: 10 mi

Pressure: 30.09 "Hg

Humidity: 71%

Dew point: 65 °F

Location of HoustonLocation

Historic Weather in Houston — Graph


Houston temperature yesterday

Maximum temperature yesterday: 87 °F (at 3:53 PM)
Minimum temperature yesterday: 73 °F (at 2:53 AM)
Average temperature yesterday: 79 °F

Past Weeks' High & Low Weather Summary

High92 °F (Sep 25, 1:53 PM)94% (Sep 29, 9:53 PM)30.13 "Hg (Sep 29, 9:53 PM)
Low61 °F (Oct 3, 6:53 AM)26% (Oct 2, 3:53 PM)29.75 "Hg (Sep 28, 4:53 PM)
Average77 °F66%29.95 "Hg
* Reported Sep 25 2:53 AM — Oct 10 2:53 AM, Houston, Weather by CustomWeather, © 2015

Note: Actual official high and low records may vary slightly from our data, if they occured in-between our weather recording intervals... More about our weather records


Houston weather history for previous 24 hours

Time TempWeatherWind HumidityBarometerVisibility
2:53 AM
Sat, Oct 10
74 °FPassing clouds.7 mph85%30.09 "Hg10 mi
1:53 AM74 °FPassing clouds.5 mph88%30.09 "Hg10 mi
12:53 AM74 °FPassing clouds.3 mph85%30.09 "Hg10 mi
11:53 PM
Fri, Oct 9
74 °FPassing clouds.3 mph85%30.09 "Hg10 mi
10:53 PM76 °FPassing clouds.5 mph82%30.10 "Hg10 mi
9:53 PM76 °FPassing clouds.5 mph82%30.09 "Hg10 mi
8:53 PM77 °FPassing clouds.5 mph79%30.08 "Hg10 mi
7:53 PM78 °FPartly sunny.5 mph74%30.06 "Hg10 mi
6:53 PM81 °FBroken clouds.3 mph65%30.04 "Hg10 mi
5:53 PM84 °FBroken clouds.5 mph59%30.04 "Hg10 mi
4:53 PM85 °FMostly cloudy.6 mph55%30.04 "Hg10 mi
3:53 PM87 °FPartly sunny.7 mph50%30.04 "Hg10 mi
2:53 PM86 °FBroken clouds.No wind53%30.04 "Hg10 mi
1:53 PM86 °FBroken clouds.8 mph53%30.07 "Hg10 mi
12:53 PM85 °FCloudy.8 mph55%30.10 "Hg10 mi
11:53 AM84 °FBroken clouds.No wind63%30.12 "Hg10 mi
10:53 AM81 °FBroken clouds.7 mph72%30.13 "Hg10 mi
9:53 AM80 °FBroken clouds.5 mph76%30.13 "Hg10 mi
8:53 AM77 °FBroken clouds.6 mph85%30.11 "Hg10 mi
7:53 AM74 °FMostly cloudy.No wind91%30.09 "Hg10 mi
6:53 AM74 °FHigh level clouds.No wind88%30.06 "Hg10 mi
5:53 AM73 °FPassing clouds.No wind90%30.04 "Hg10 mi
4:53 AM73 °FClear.No wind90%30.03 "Hg10 mi
Weather by CustomWeather, © 2015

See weather overviewHow to use our weather pages